RH
46 53 60 82 69 54 52 58 44 46 50 48 44 46 72 81 60 73 68 63 63 66 75 66 54 60 70 70 76 75 83 81 85 76 74 86 91 91 97 93 95 89 88 82 78 74 82 78 77
50 67 82 80 59 57 54 50 53 48 49 44 48 59 70 82 85 78 78 66 59 59 62 59 63 57 66 68 75 78 81 78 85 62 70 68 80 91 96 92 87 87 86 83 84 83 83 70 66
60 70 81 78 53 53 60 49 50 47 42 42 46 53 69 91 82 67 50 51 52 53 52 56 67 58 52 60 78 80 77 80 79 68 70 74 79 81 80 84 82 82 82 80 73 68 83 73 69
73 63 58 53 42 40 53 45 41 44 42 44 46 58 71 64 54 43 42 40 48 52 56 73 63 57 60 57 81 81 83 78 75 77 76 81 72 73 74 73 61 70 70 73 72 76 72 76 81
41 41 59 47 41 38 45 40 43 49 47 47 47 63 81 79 50 36 37 42 39 41 54 56 55 67 62 60 69 78 72 66 74 76 78 77 82 85 80 75 69 66 65 52 64 67 70 73 77
36 44 54 52 40 39 43 40 42 45 47 52 56 61 72 62 35 38 35 38 39 38 51 53 54 60 63 60 57 75 74 66 81 60 65 84 66 81 80 79 82 78 61 57 61 67 72 73 73
46 53 50 43 42 42 42 40 46 46 46 48 53 72 86 57 48 54 40 40 50 45 39 45 53 45 48 59 64 65 72 72 62 61 62 74 70 72 60 58 58 55 44 45 56 69 66 76 74
35 51 47 46 42 41 40 40 45 44 46 49 51 75 84 66 63 64 45 50 54 50 54 46 42 48 49 51 62 60 59 74 68 64 55 49 62 59 72 47 42 36 36 38 50 71 72 76 77
33 57 49 42 40 38 35 41 44 43 46 47 47 56 58 62 68 62 48 54 52 50 49 48 51 50 51 54 53 54 58 58 56 61 75 57 48 44 44 47 56 49 43 40 38 38 44 52 71
43 51 45 36 32 33 34 39 43 44 44 46 52 59 60 67 64 51 47 49 51 53 58 44 43 47 54 51 47 42 45 50 46 45 47 54 53 55 54 57 56 55 49 48 55 56 54 42 51
36 43 38 33 34 30 34 38 42 44 49 46 62 65 64 67 66 59 54 57 58 61 63 62 58 43 45 56 50 51 42 44 58 65 66 64 62 67 64 58 47 43 43 42 41 52 54 49 59
37 34 32 35 32 32 35 34 42 41 44 45 54 55 63 65 61 58 57 60 62 65 66 66 68 69 50 70 65 67 63 77 69 78 84 78 76 75 77 69 48 63 67 55 54 38 38 61 67
43 36 33 34 33 32 31 35 41 42 41 44 54 58 57 55 55 56 52 58 60 64 67 69 70 72 69 68 71 71 74 74 78 84 82 79 79 72 75 74 73 77 76 69 70 64 66 64 69
36 36 36 37 38 37 35 38 38 44 39 42 50 54 53 53 55 58 55 54 57 62 64 65 68 71 77 76 74 75 73 70 66 74 80 77 77 77 78 75 78 81 80 76 75 75 72 67 71
34 40 40 42 42 40 31 46 46 42 40 40 41 46 50 53 55 52 47 48 49 56 61 54 53 63 74 70 76 79 80 79 76 71 77 79 79 76 80 78 73 74 74 77 77 73 71 70 74
40 46 52 41 45 42 41 53 46 40 40 40 39 40 43 46 45 46 46 47 48 55 59 54 55 57 66 69 76 77 73 78 77 77 79 77 76 78 77 79 78 78 76 77 79 81 77 75 78
45 51 48 49 43 41 42 56 47 36 36 39 39 38 38 38 40 40 45 45 46 52 54 55 58 62 62 69 69 71 67 75 76 77 76 73 74 80 82 78 86 88 83 78 82 88 82 78 80
42 50 49 50 42 40 43 50 50 42 40 35 36 35 37 36 36 35 38 43 45 52 54 55 56 64 64 68 71 69 74 74 67 73 71 76 77 79 83 79 80 79 75 78 83 80 84 77 74
42 40 32 40 38 46 44 40 45 47 49 45 34 33 34 34 33 34 36 41 45 52 57 53 60 64 68 65 61 64 68 70 75 78 80 77 79 79 72 74 74 78 76 70 73 82 81 76 72
41 46 46 39 36 43 52 51 42 50 50 45 47 36 33 35 32 35 36 42 44 46 52 54 58 64 66 63 58 59 58 63 70 75 82 77 78 77 77 77 76 79 81 78 79 76 80 78 74
41 43 45 35 39 42 58 57 55 46 47 46 39 40 34 34 35 37 36 42 43 48 49 52 56 63 64 64 63 71 74 70 65 68 73 79 71 80 80 79 79 85 82 81 83 77 77 79 80
32 33 33 37 40 49 40 57 46 51 52 52 40 38 43 34 36 39 41 39 43 46 46 51 55 61 60 66 66 66 69 67 65 64 71 74 65 61 75 78 75 75 76 75 73 74 78 80 83
28 27 30 33 38 40 46 50 50 52 48 44 42 37 40 40 36 39 41 44 43 46 47 55 56 61 59 67 68 66 68 67 69 68 74 77 75 75 76 76 78 84 81 76 74 79 84 80 80
25 30 36 45 42 39 39 43 41 50 39 32 36 34 35 43 39 40 42 47 46 46 51 58 64 65 63 70 72 68 68 72 72 72 76 81 78 76 77 85 87 80 79 77 87 86 84 82 82
26 30 38 33 47 37 48 42 39 28 35 34 37 31 30 38 46 43 43 46 49 52 53 57 63 73 60 72 71 70 74 74 72 73 77 79 77 81 87 91 79 59 48 88 85 82 80 81 79
29 30 36 30 43 38 42 43 30 29 28 26 26 27 29 37 41 42 41 45 46 47 52 58 59 66 70 67 67 69 76 75 78 74 75 82 85 91 91 81 72 68 52 48 71 84 83 78 77
25 23 24 49 51 45 44 39 30 31 30 32 28 31 32 28 37 42 41 44 45 46 48 52 57 63 69 68 60 65 76 78 77 76 75 87 88 86 78 77 55 31 28 23 23 39 64 74 71
17 19 23 36 44 44 46 44 40 29 31 31 32 30 34 39 43 50 44 43 44 46 49 53 57 61 64 68 58 66 77 80 81 74 76 86 79 65 66 62 56 28 28 26 26 28 27 27 30
16 18 27 35 42 47 40 46 41 33 32 29 31 26 30 39 42 46 45 42 44 47 50 54 58 62 66 64 66 67 70 74 70 74 87 87 75 62 63 42 32 39 46 39 33 34 39 45 52
10 13 21 20 20 46 41 34 23 31 28 28 22 21 24 30 38 43 44 42 44 47 50 54 58 63 60 50 55 63 66 65 64 72 68 60 38 45 21 23 27 34 42 41 43 50 55 63 69
Wind_Speed
10 4 5 1 3 4 2 3 1 4 3 3 8 8 9 13 1 4 20 15 19 18 17 15 15 16 16 15 15 15 16 17 15 16 20 22 23 19 19 23 21 23 21 18 17 17 10 10 11
11 6 1 0 5 4 3 2 4 4 13 23 18 9 13 5 11 20 22 23 18 19 17 16 15 16 15 15 15 15 17 18 18 20 24 26 27 28 26 26 25 21 19 17 15 14 14 16 17
2 8 3 3 3 3 3 2 11 14 9 3 7 14 5 4 19 24 24 23 21 19 18 17 16 15 16 15 16 17 17 19 20 19 20 22 22 27 30 30 22 21 20 17 17 18 19 19 19
3 3 1 4 3 6 6 8 12 10 18 16 19 7 9 13 21 22 24 22 20 19 18 17 16 16 16 16 18 18 21 21 21 18 18 18 20 22 25 24 26 20 17 18 20 19 20 21 18
4 3 5 2 3 3 9 14 19 7 5 19 18 7 14 8 19 26 25 23 20 19 18 17 16 16 16 16 17 17 19 20 20 19 18 18 16 18 21 21 21 19 17 17 17 18 18 16 15
4 3 4 2 3 4 5 20 11 19 15 22 19 12 4 15 26 23 21 21 19 18 17 16 15 15 15 15 16 17 17 18 18 18 17 16 16 17 18 19 18 17 14 14 16 17 16 15 16
4 3 0 2 4 4 4 13 13 15 17 9 18 5 13 26 23 19 19 18 17 16 15 15 14 15 15 15 15 15 17 17 16 17 16 15 13 14 15 16 15 16 14 13 14 16 15 13 11
4 4 3 3 2 3 12 6 20 23 5 21 23 5 11 28 23 19 18 18 17 16 14 13 13 13 15 15 16 15 16 15 15 14 14 15 14 13 13 14 13 14 14 13 14 14 12 11 9
3 4 1 2 3 4 15 9 17 7 23 17 3 22 30 29 25 22 22 19 17 16 14 13 13 12 13 15 15 15 15 15 14 15 14 12 13 13 12 10 9 9 11 11 12 11 11 11 11
5 3 4 2 3 4 9 16 14 10 17 9 21 24 28 30 27 26 25 22 18 16 15 13 12 13 13 13 14 14 14 14 14 13 13 12 11 10 9 8 8 9 10 11 9 9 10 9 10
3 4 3 8 8 11 10 12 12 24 4 24 30 32 34 32 28 23 22 19 15 15 14 12 12 13 12 13 15 14 14 14 14 13 12 11 11 9 7 6 7 7 7 7 8 8 8 9 9
4 12 4 1 16 7 3 8 14 15 12 26 33 35 35 33 28 24 21 18 18 14 13 12 13 13 14 14 14 14 15 14 14 12 11 11 7 7 7 6 7 6 4 8 8 10 11 10 8
3 4 7 15 23 20 13 11 7 10 29 23 33 34 34 32 28 23 16 17 18 15 14 11 13 13 13 11 13 14 15 13 12 11 11 9 7 8 7 6 5 4 4 6 6 8 10 10 12
4 12 8 8 15 12 14 7 7 15 28 27 31 34 33 33 31 27 23 20 19 16 14 10 11 11 11 7 11 13 14 13 12 13 10 8 8 7 6 8 10 9 7 7 9 10 12 14 12
4 5 6 7 1 4 20 6 6 25 31 30 29 32 34 33 31 29 23 22 19 18 16 8 8 9 9 7 7 10 14 14 15 13 12 11 10 11 12 9 9 10 8 8 9 10 11 14 13
5 5 5 5 8 4 2 2 7 24 25 28 32 31 34 35 31 29 27 24 21 20 19 12 10 10 8 7 8 7 12 12 14 14 13 12 14 13 14 15 12 10 11 10 10 9 12 13 13
8 2 3 7 3 4 4 4 5 23 21 23 31 34 34 31 30 32 31 28 25 24 19 16 13 12 9 8 5 6 9 12 12 13 13 14 12 12 11 11 10 9 8 8 9 9 9 8 8
4 3 2 4 3 4 3 5 7 16 16 23 27 31 32 32 33 34 35 33 28 28 23 17 15 13 9 6 7 9 10 12 13 12 11 9 9 9 8 9 8 8 8 9 9 11 10 10 9
8 4 4 4 4 2 3 4 7 6 9 15 28 28 27 25 25 28 35 35 34 31 27 21 19 16 15 10 10 12 12 14 14 13 11 10 10 10 11 11 11 8 11 11 14 11 11 11 9
9 3 3 5 4 2 3 10 1 4 4 14 19 28 30 24 28 31 35 39 36 30 28 23 22 20 18 10 12 10 10 12 11 11 9 8 7 9 9 10 12 12 14 15 11 12 12 10 7
4 6 5 5 3 3 4 7 4 2 7 9 23 25 33 33 29 28 33 39 37 35 30 25 25 25 19 15 15 13 14 14 15 12 9 8 9 10 11 11 11 11 11 10 11 13 14 11 9
1 7 6 6 3 3 3 4 5 5 7 7 19 25 33 40 35 30 33 35 40 38 31 24 27 26 20 19 19 16 15 11 10 11 8 9 9 7 9 8 8 7 7 9 9 9 8 10 9
8 0 1 2 5 3 1 2 6 5 6 10 17 25 28 39 41 41 38 34 38 41 35 28 25 27 22 21 19 19 17 14 10 9 12 12 7 9 9 9 11 11 13 13 10 8 6 7 7
6 6 9 6 4 3 2 3 5 4 6 2 4 18 24 35 43 44 40 34 36 39 37 28 27 29 24 23 22 22 19 16 14 13 12 10 9 11 10 10 11 11 9 7 7 7 8 8 9
6 6 3 3 4 4 5 3 9 6 8 7 13 14 9 29 38 45 45 41 39 41 39 31 30 26 17 21 22 23 18 16 13 12 11 11 12 12 11 10 9 10 9 9 7 7 7 7 8
7 8 5 4 3 4 3 4 5 5 11 9 8 7 7 22 34 41 45 41 37 36 38 33 27 25 23 18 20 23 20 16 16 13 12 12 11 11 11 10 10 12 10 9 9 8 9 9 9
4 3 5 7 4 2 3 7 10 3 5 2 3 7 4 22 31 37 40 39 37 36 34 33 26 24 22 17 22 24 19 16 15 13 13 12 11 9 10 9 9 9 6 6 6 7 8 8 9
11 9 2 3 3 4 4 5 6 4 6 5 8 9 5 9 21 30 38 38 36 35 33 31 26 22 21 19 24 25 21 18 17 16 14 11 10 8 9 9 10 6 3 2 3 5 6 6 6
2 0 7 6 4 6 2 6 8 10 9 9 10 14 12 15 20 28 34 36 35 34 35 32 28 27 25 22 24 26 23 21 18 15 13 12 10 9 9 9 6 2 1 2 0 2 2 1 2
5 3 6 5 4 0 3 6 4 8 10 16 22 19 16 16 24 28 34 36 35 35 34 31 28 27 23 24 28 28 24 22 21 20 17 14 12 10 8 6 5 3 1 1 1 1 1 1 2
Wind_Direction
62 61 2 116 29 69 59 358 27 105 76 17 143 128 113 39 93 161 142 149 155 139 141 134 127 118 110 103 105 115 125 130 118 96 104 91 107 107 143 141 129 131 139 144 147 145 122 137 136
347 343 325 319 76 57 354 28 73 69 123 92 77 89 51 58 101 132 146 149 148 142 144 136 129 118 113 109 107 122 125 128 125 104 108 100 95 94 104 131 125 126 128 134 143 152 139 132 126
303 316 17 84 118 150 129 136 117 131 122 108 105 66 76 95 131 138 144 151 148 145 143 138 133 126 117 113 112 121 126 130 129 123 114 108 106 105 108 110 101 116 119 119 129 127 122 122 121
271 351 52 65 37 354 124 159 125 107 85 85 108 64 83 121 130 139 144 148 144 147 144 141 137 129 119 115 117 121 121 130 128 126 121 116 116 117 113 114 107 113 122 130 131 129 127 124 121
12 23 54 66 360 34 119 138 124 109 75 100 106 103 115 144 148 144 148 149 145 145 146 145 144 136 128 123 123 124 128 129 132 132 128 120 122 117 116 120 122 126 131 133 134 131 130 130 126
5 44 48 64 99 53 106 137 120 107 108 104 104 109 107 155 143 144 146 149 147 145 147 146 149 144 139 133 129 127 131 136 134 131 127 127 127 126 127 131 133 130 129 136 140 141 136 132 126
107 71 255 17 100 87 111 133 115 117 125 103 125 77 133 153 149 144 145 148 148 148 149 149 152 148 147 145 138 138 135 137 138 134 134 134 131 129 128 127 128 128 137 139 138 138 141 142 138
94 91 25 329 180 119 149 115 132 130 106 139 125 150 162 162 154 148 149 155 155 150 154 155 159 156 153 149 150 146 142 141 141 137 138 139 136 135 135 129 131 136 133 137 145 153 155 158 161
79 62 61 263 189 129 160 129 152 127 134 154 214 161 161 157 157 156 158 159 157 152 154 153 157 159 161 155 153 156 151 151 151 145 142 142 139 140 137 131 134 134 137 141 143 158 175 183 187
67 77 11 326 337 142 124 142 133 126 137 119 117 147 159 160 162 160 160 159 153 153 154 153 154 159 160 166 159 158 161 162 158 155 151 149 147 144 145 148 144 144 146 159 163 167 166 181 186
51 27 6 15 56 114 110 122 127 137 137 148 140 157 164 166 169 166 165 165 149 151 152 149 153 153 158 166 167 164 160 159 155 149 146 142 148 152 157 167 174 169 177 183 187 181 178 172 175
74 34 52 24 90 78 78 102 139 160 168 157 158 164 166 172 176 179 173 174 169 166 160 155 155 157 157 159 157 160 162 159 164 168 164 169 178 164 159 154 166 164 201 190 194 202 203 195 202
28 44 37 69 76 78 110 105 129 154 155 148 157 168 173 180 185 186 181 179 179 177 172 173 164 158 160 176 186 182 177 175 179 176 179 185 194 193 199 197 198 188 207 209 200 193 197 215 223
182 103 109 68 80 86 102 83 102 151 160 154 166 179 183 187 189 189 188 188 194 186 175 173 168 167 181 176 192 196 196 193 195 199 198 206 207 224 224 230 234 232 232 227 212 227 229 232 238
136 54 13 10 341 133 113 58 134 161 167 172 177 185 189 193 193 193 196 197 197 193 179 173 165 175 182 167 181 205 209 210 205 203 208 220 229 239 241 245 249 237 226 213 225 236 240 241 246
82 55 27 310 324 349 347 168 148 169 173 182 189 192 196 198 205 204 208 206 201 193 190 177 156 148 158 177 196 209 207 207 203 211 219 230 232 240 244 248 253 253 246 244 248 255 259 254 268
18 88 22 316 306 268 215 159 209 180 190 199 197 202 206 212 212 217 212 212 206 196 187 190 166 162 145 158 174 189 188 197 204 207 220 218 222 224 236 239 247 242 242 244 242 259 261 274 279
136 138 148 222 291 329 64 166 170 190 196 208 211 211 215 221 225 222 215 214 210 202 194 196 184 170 162 175 187 180 180 176 179 186 180 181 196 202 207 214 234 248 248 249 257 260 261 265 275
113 142 189 243 242 356 276 226 179 177 189 203 220 219 223 222 225 215 214 211 208 203 197 197 195 187 181 186 199 189 186 193 197 199 198 198 211 212 220 228 235 248 239 245 256 264 275 270 264
117 124 272 291 260 166 345 282 73 172 216 227 227 223 224 214 208 208 208 206 210 203 200 201 201 203 197 188 181 187 195 207 216 227 222 232 247 248 245 238 250 253 255 257 257 268 277 275 279
180 161 197 223 80 31 75 298 244 254 197 229 227 233 224 217 209 209 212 212 209 203 200 210 206 208 206 194 195 210 216 229 233 233 225 242 265 253 248 260 258 267 263 258 262 274 269 272 271
310 204 188 169 94 228 110 283 289 226 236 214 234 234 225 215 212 211 210 215 210 206 207 224 212 207 212 205 213 222 227 235 246 232 240 253 258 266 269 257 271 283 276 266 272 273 262 263 244
232 28 198 199 152 56 200 109 283 46 301 265 247 226 227 217 211 211 217 218 213 209 215 216 217 212 218 218 223 230 231 235 249 236 240 263 264 256 257 261 280 283 282 275 272 260 241 224 219
111 63 26 36 61 311 13 106 284 198 209 241 238 229 228 220 216 212 214 216 220 216 219 218 209 216 220 220 228 231 232 236 238 235 238 249 255 253 267 281 286 290 281 267 250 248 243 230 233
87 70 316 4 12 237 337 34 239 262 220 202 189 200 229 219 213 209 213 219 222 222 220 221 223 220 221 222 237 227 228 234 236 239 241 257 265 272 274 278 288 302 286 260 257 250 246 245 244
179 143 171 172 198 271 4 245 257 225 288 254 265 243 240 206 214 215 214 216 220 225 222 217 219 221 222 240 230 224 232 241 250 247 260 266 267 262 263 280 295 294 275 263 256 254 249 247 251
224 178 211 100 12 47 263 293 304 296 301 297 263 294 177 212 215 213 210 212 215 224 223 217 220 222 224 239 218 223 230 239 245 251 263 265 264 262 270 280 296 295 287 274 255 247 248 255 262
163 156 101 10 134 266 285 284 238 290 248 226 234 243 178 196 200 209 208 211 215 220 218 215 219 221 223 228 217 221 232 236 247 259 263 267 266 267 279 286 295 292 286 275 247 244 254 259 262
112 111 58 116 123 166 215 265 217 217 218 215 231 213 201 206 209 212 211 210 214 215 212 216 216 216 217 217 214 218 227 235 240 242 250 250 257 259 275 278 273 279 287 330 258 231 241 224 216
142 145 138 123 222 151 148 273 278 213 216 219 229 204 209 219 218 216 214 212 213 216 215 215 218 216 216 213 212 215 220 222 223 226 232 236 236 248 249 232 223 204 235 52 89 201 206 184 236